New York JFK, NY

9:21 AM EDT on September 23, 2017 (GMT -0400)
Kennedy International

Weather History for KJFK - August, 2014

Change the Weather History Date:

Saturday, August 9, 2014

  Actual Average Record
Temperature  
Mean Temperature 76 °F 76 °F  
Max Temperature 86 °F 83 °F 98 °F (2001)
Min Temperature 66 °F 69 °F 57 °F (1989)
Degree Days  
Heating Degree Days 0 0  
Month to date heating degree days 0 0  
Since 1 June heating degree days 0 21  
Since 1 July heating degree days 0 0  
Cooling Degree Days 11 11  
Month to date cooling degree days 95 99  
Year to date cooling degree days 668 654  
Since 1 June cooling degree days 636 619  
Growing Degree Days 26 (Base 50)    
Moisture  
Dew Point 57 °F    
Average Humidity 51    
Maximum Humidity 73    
Minimum Humidity 29    
Precipitation  
Precipitation 0.00 in 0.13 in 3.15 in (1976)
Month to date precipitation 0.49 1.18  
Year to date precipitation 30.37 26.46  
Snow  
Snow 0.00 in 0.00 in - ()
Month to date snowfall 0.0 0.0  
Since 1 July snowfall 0.0 0.0  
Snow Depth 0.00 in    
Sea Level Pressure  
Sea Level Pressure 30.10 in    
Wind  
Wind Speed 7 mph (NW)    
Max Wind Speed 15 mph    
Max Gust Speed 18 mph    
Visibility 10 miles    
Events      
T = Trace of Precipitation, MM = Missing Value Source: NWS Daily Summary

Daily Weather History Graph

Daily Weather History Graph

Search for Another Location

Airport or City:

Trip Planner

Search our weather history database for the weather conditions in past years. The results will help you decide how hot, cold, wet, or windy it might be!

Date:

Astronomy

Aug. 09, 2014 Rise Set
Actual Time 5:59 AM EDT 8:00 PM EDT
Civil Twilight 5:29 AM EDT 8:30 PM EDT
Nautical Twilight 4:53 AM EDT 9:07 PM EDT
Astronomical Twilight 4:13 AM EDT 9:46 PM EDT
Moon 7:00 PM EDT (8/9) 4:37 AM EDT (8/9)
Length of Visible Light 15h 00m
Length of Day
14h 01m
Waxing Gibbous, 98% of the Moon is Illuminated
Aug 9
Waxing Gibbous
Aug 10
Full
Aug 17
Last Quarter
Aug 25
New
Sep 2
First Quarter

Hourly Weather History & Observations

Time (EDT) Temp. Heat Index Dew Point Humidity Pressure Visibility Wind Dir Wind Speed Gust Speed Precip Events Conditions
12:51 AM 72.0 °F - 55.9 °F 57% 30.08 in 10.0 mi NNW 5.8 mph - N/A   Scattered Clouds
1:51 AM 70.0 °F - 61.0 °F 73% 30.07 in 10.0 mi North 3.5 mph - N/A   Scattered Clouds
2:51 AM 70.0 °F - 57.0 °F 63% 30.07 in 10.0 mi North 5.8 mph - N/A   Scattered Clouds
3:51 AM 69.1 °F - 59.0 °F 70% 30.08 in 10.0 mi NNW 6.9 mph - N/A   Scattered Clouds
4:51 AM 69.1 °F - 57.9 °F 68% 30.08 in 10.0 mi North 4.6 mph - N/A   Partly Cloudy
5:51 AM 68.0 °F - 59.0 °F 73% 30.10 in 10.0 mi North 4.6 mph - N/A   Partly Cloudy
6:51 AM 69.1 °F - 59.0 °F 70% 30.11 in 10.0 mi North 6.9 mph - N/A   Partly Cloudy
7:51 AM 73.0 °F - 57.0 °F 57% 30.13 in 10.0 mi North 9.2 mph - N/A   Partly Cloudy
8:51 AM 75.9 °F - 55.9 °F 50% 30.13 in 10.0 mi North 10.4 mph - N/A   Partly Cloudy
9:51 AM 79.0 °F - 55.0 °F 44% 30.12 in 10.0 mi NNE 8.1 mph - N/A   Partly Cloudy
10:51 AM 82.0 °F 81.2 °F 53.1 °F 37% 30.12 in 10.0 mi North 6.9 mph - N/A   Partly Cloudy
11:51 AM 84.0 °F - 50.0 °F 31% 30.11 in 10.0 mi Variable 5.8 mph - N/A   Scattered Clouds
12:51 PM 84.9 °F - 48.0 °F 28% 30.10 in 10.0 mi NNW 11.5 mph - N/A   Mostly Cloudy
1:51 PM 82.9 °F 82.0 °F 55.0 °F 38% 30.09 in 10.0 mi South 9.2 mph - N/A   Mostly Cloudy
2:51 PM 82.9 °F 82.0 °F 55.0 °F 38% 30.09 in 10.0 mi SSW 15.0 mph - N/A   Scattered Clouds
3:51 PM 84.0 °F 83.0 °F 55.9 °F 38% 30.08 in 10.0 mi SSW 12.7 mph - N/A   Scattered Clouds
4:51 PM 82.9 °F 82.0 °F 55.0 °F 38% 30.08 in 10.0 mi SSW 10.4 mph - N/A   Scattered Clouds
5:51 PM 82.0 °F 81.4 °F 55.0 °F 39% 30.08 in 10.0 mi SSW 10.4 mph - N/A   Scattered Clouds
6:51 PM 79.0 °F - 55.0 °F 44% 30.08 in 10.0 mi SSW 6.9 mph - N/A   Scattered Clouds
7:51 PM 75.9 °F - 60.1 °F 58% 30.08 in 10.0 mi South 6.9 mph - N/A   Scattered Clouds
8:51 PM 75.9 °F - 59.0 °F 56% 30.09 in 10.0 mi Calm Calm - N/A   Scattered Clouds
9:51 PM 75.9 °F - 59.0 °F 56% 30.10 in 10.0 mi Calm Calm - N/A   Partly Cloudy
10:51 PM 73.9 °F - 62.1 °F 66% 30.12 in 10.0 mi South 4.6 mph - N/A   Partly Cloudy
11:51 PM 75.0 °F - 61.0 °F 62% 30.12 in 10.0 mi WSW 6.9 mph - N/A   Partly Cloudy